Regional Weather Roundup
Issued by NWS

Home | Current Version | Previous Version | Text Only | Print | Product List | Glossary Off
Versions: 1 2 3 4 5 6 7 8 9 10 11 12 13 14 15 16 17 18 19 20 21 22 23 24 25 26 27 28 29 30 31 32 33 34 35 36 37 38 39 40 41 42 43 44 45 46 47 48 49 50

000
ASUS43 KDMX 261907
RWRIA

WEATHER ROUNDUP FOR IOWA
NATIONAL WEATHER SERVICE DES MOINES IA
200 PM CDT TUE AUG 26 2014

NOTE: "FAIR" INDICATES FEW OR NO CLOUDS BELOW 12,000 FEET WITH NO
SIGNIFICANT WEATHER AND/OR OBSTRUCTIONS TO VISIBILITY.

* - THESE STATIONS ARE NOT NWS STATIONS...THUS NOT UNDER NWS
QUALITY CONTROL.  THEY ALSO DO NOT REPORT WEATHER SUCH
AS PRECIPITATION OR FOG.

IAZ001>003-012>014-020>022-031>034-043>046-262000-
   NORTHWEST IOWA

CITY           SKY/WX    TMP DP  RH WIND       PRES   REMARKS
CARROLL *      SUNNY     72  61  68 E5G13     30.17F
CHEROKEE *     PTSUNNY   70  59  68 NE3       30.19F
DENISON *      MOSUNNY   72  63  73 VRB5      30.17R
LE MARS *      SUNNY     70  59  68 E6        30.19F
ORANGE CITY *  SUNNY     70  55  60 CALM      30.19F
SHELDON *      SUNNY     64  57  77 CALM      30.19F
SIOUX CITY     CLOUDY    72  61  68 SE6       30.18S
SPENCER        PTSUNNY   68  54  60 CALM      30.20F
STORM LAKE *   CLOUDY    68  61  77 NE6       30.20F
$$

IAZ055>058-069>071-079>083-090>094-262000-
   SOUTHWEST IOWA

CITY           SKY/WX    TMP DP  RH WIND       PRES   REMARKS
ATLANTIC *     SUNNY     73  64  73 VRB6      30.16F
AUDUBON *      SUNNY     75  68  78 CALM      30.19S
CLARINDA *     MOSUNNY   79  68  69 E6        30.15F HX  81
COUNCIL BLFS * PTSUNNY   73  70  88 NE8       30.15F
CRESTON *      SUNNY     75  66  73 NE9       30.16F
HARLAN  *      SUNNY     73  64  73 NE6       30.21F
LAMONI         CLOUDY    74  67  78 N9        30.15F
RED OAK *      SUNNY     75  68  78 N8        30.14F
SHENANDOAH *   SUNNY     77  70  78 NE6G13    30.14F
$$

IAZ047>049-059>061-072>074-084-262000-
   CENTRAL IOWA

CITY           SKY/WX    TMP DP  RH WIND       PRES   REMARKS
AMES           CLOUDY    71  63  75 S3        30.17F
ANKENY *       SUNNY     73  64  73 VRB6      30.16F
CHARITON *     SUNNY     75  66  73 N7        30.16R
DES MOINES     CLOUDY    78  64  61 N9        30.13F HX  80
GRINNELL*      MOSUNNY   75  63  64 NW3       30.18S
KNOXVILLE *    MOSUNNY   75  64  69 N6        30.14F
MARSHALLTOWN   MOSUNNY   72  62  71 CALM      30.17S
PELLA *        PTSUNNY   79  66  65 N5        30.16F HX  81
PERRY *          N/A     72  63  73 NE3       30.16F
$$

IAZ004>006-015-016-023>025-035-036-262000-
   NORTH CENTRAL IOWA

CITY           SKY/WX    TMP DP  RH WIND       PRES   REMARKS
ALGONA *       SUNNY     70  57  64 CALM      30.21R
CLARION *      SUNNY     72  59  64 VRB3      30.18F
ESTHERVILLE    PTSUNNY   67  55  65 S5        30.20F
FORT DODGE *   MOSUNNY   72  59  64 N6        30.19F
MASON CITY     MOSUNNY   74  54  49 VRB6      30.20S
FOREST CITY *  SUNNY     72  54  53 CALM      30.18F
IOWA FALLS *     N/A     73  59  60 NW5       30.19F
$$

IAZ007>011-017>019-026>030-037>042-050>054-066-262000-
   NORTHEAST IOWA

CITY           SKY/WX    TMP DP  RH WIND       PRES   REMARKS
CEDAR RAPIDS   SUNNY     78  63  59 CALM      30.13S HX  80
CHARLES CITY * SUNNY     72  55  56 NW6       30.18S
CLINTON *      PTSUNNY   75  64  69 NE3       30.16S
DECORAH *      SUNNY     70  59  68 VRB5      30.15F
DUBUQUE        MOSUNNY   75  60  59 VRB5      30.15S
MONTICELLO *   SUNNY     77  64  65 N5        30.14S
OELWEIN *      SUNNY     73  63  68 N7        30.17S
WATERLOO       MOSUNNY   77  61  57 W5        30.15S
$$

IAZ064-065-067-068-078-262000-
   EAST CENTRAL IOWA

CITY           SKY/WX    TMP DP  RH WIND       PRES   REMARKS
DAVENPORT      MOSUNNY   79  65  62 N9        30.13F HX  81
IOWA CITY      SUNNY     79  65  62 VRB6      30.14S HX  81
MT. PLEASANT * MOSUNNY   82  64  54 N9        30.12S HX  84
MUSCATINE *    SUNNY     81  64  57 NE13      30.12F HX  82
QUAD CITIES    MOSUNNY   82  65  56 N9        30.11F HX  84
$$

IAZ062-063-075>077-085>089-095>099-262000-
   SOUTHEAST IOWA

CITY           SKY/WX    TMP DP  RH WIND       PRES   REMARKS
BURLINGTON     MOSUNNY   84  71  65 N8        30.10R HX  89
FAIRFIELD *    SUNNY     81  66  61 N8        30.14S HX  83
FORT MADISON * SUNNY     84  72  65 CALM      30.11R HX  89
KEOKUK *       SUNNY     84  70  61 VRB6      30.09S HX  88
OSKALOOSA *      N/A     79  66  65 NE3       30.14F HX  81
CENTERVILLE *  SUNNY     79  68  69 CALM      30.16S HX  81
OTTUMWA        MOSUNNY   80  65  59 MISG      30.12S HX  82
WASHINGTON *   SUNNY     81  68  65 NE6       30.13S HX  83
$$

ABBREVIATIONS USED IN REMARKS
   TC - TEMPERATURES IN CELSIUS
  WCI - WIND CHILL INDEX
   HX - HEAT INDEX
  VSB - VISIBILITY
$$



USA.gov is the U.S. government's official web portal to all federal, state and local government web resources and services.